Change the Weather History Date:

Tuesday, October 28, 2014

  Actual Average Record
Temperature  
Mean Temperature 48 °F 48 °F  
Max Temperature 58 °F 59 °F 84 °F (1927)
Min Temperature 38 °F 38 °F 12 °F (1925)
Degree Days  
Heating Degree Days 17 17  
Month to date heating degree days 331 349  
Since 1 July heating degree days 465 470  
Cooling Degree Days 0 0  
Month to date cooling degree days 1 9  
Year to date cooling degree days 801 936  
Moisture  
Dew Point 36 °F    
Average Humidity 58    
Maximum Humidity 76    
Minimum Humidity 40    
Precipitation  
Precipitation 0.00 in 0.08 in 2.05 in (1921)
Month to date precipitation 3.51 2.56  
Year to date precipitation 38.96 33.05  
Sea Level Pressure  
Sea Level Pressure 29.99 in    
Wind  
Wind Speed 13 mph (WNW)    
Max Wind Speed 24 mph    
Max Gust Speed 32 mph    
Visibility 10 miles    
Events Rain    
T = Trace of Precipitation, MM = Missing Value Source: NWS Daily Summary

Daily Weather History Graph

Daily Weather History Graph

Search for Another Location

Airport or City:

Trip Planner

Search our weather history database for the weather conditions in past years. The results will help you decide how hot, cold, wet, or windy it might be!

Date:

Astronomy

Oct. 28, 2014 Rise Set
Actual Time 7:36 AM CDT 6:10 PM CDT
Civil Twilight 7:07 AM CDT 6:38 PM CDT
Nautical Twilight 6:35 AM CDT 7:11 PM CDT
Astronomical Twilight 6:03 AM CDT 7:43 PM CDT
Moon 12:06 PM CDT (10/28) 10:15 PM CDT (10/28)
Length of Visible Light 11h 31m
Length of Day
10h 34m
Waxing Crescent, 24% of the Moon is Illuminated
Oct 28
Waxing Crescent
Oct 30
First Quarter
Nov 6
Full
Nov 14
Last Quarter
Nov 22
New

Hourly Weather History & Observations

Time (CDT) Temp. Windchill Dew Point Humidity Pressure Visibility Wind Dir Wind Speed Gust Speed Precip Events Conditions
12:53 AM 55.9 °F - 46.0 °F 69% 29.84 in 10.0 mi NW 16.1 mph 26.5 mph N/A   Scattered Clouds
1:53 AM 53.1 °F - 44.1 °F 71% 29.88 in 10.0 mi NW 11.5 mph 21.9 mph N/A   Scattered Clouds
2:53 AM 51.1 °F - 43.0 °F 74% 29.88 in 10.0 mi West 9.2 mph - N/A   Scattered Clouds
3:53 AM 50.0 °F - 42.1 °F 74% 29.88 in 10.0 mi West 8.1 mph - N/A   Scattered Clouds
4:53 AM 50.0 °F - 39.9 °F 68% 29.89 in 10.0 mi West 10.4 mph - N/A   Clear
5:53 AM 48.9 °F - 37.9 °F 66% 29.92 in 10.0 mi West 9.2 mph - N/A   Clear
6:53 AM 46.0 °F 41.9 °F 36.0 °F 68% 29.94 in 10.0 mi West 8.1 mph - N/A   Clear
7:53 AM 45.0 °F 40.1 °F 35.1 °F 68% 29.94 in 10.0 mi WSW 9.2 mph - N/A   Clear
8:53 AM 48.0 °F - 34.0 °F 58% 29.95 in 10.0 mi WNW 15.0 mph - N/A   Clear
9:53 AM 51.1 °F - 32.0 °F 48% 29.97 in 10.0 mi WNW 18.4 mph 28.8 mph N/A   Clear
10:53 AM 53.1 °F - 33.1 °F 47% 29.99 in 10.0 mi WNW 16.1 mph 26.5 mph N/A   Clear
11:53 AM 55.0 °F - 34.0 °F 45% 30.01 in 10.0 mi WNW 16.1 mph 29.9 mph N/A   Clear
12:53 PM 55.9 °F - 33.1 °F 42% 30.00 in 10.0 mi WNW 21.9 mph 29.9 mph N/A   Clear
1:53 PM 57.0 °F - 33.1 °F 40% 29.99 in 10.0 mi WNW 19.6 mph 26.5 mph N/A   Clear
2:53 PM 57.0 °F - 34.0 °F 42% 29.99 in 10.0 mi WNW 18.4 mph 31.1 mph 0.00 in Rain Light Rain
3:53 PM 55.9 °F - 33.1 °F 42% 30.00 in 10.0 mi WNW 20.7 mph 29.9 mph 0.00 in Rain Light Rain
4:53 PM 55.9 °F - 33.1 °F 42% 30.02 in 10.0 mi West 17.3 mph 24.2 mph 0.00 in Rain Light Rain
5:53 PM 53.1 °F - 32.0 °F 45% 30.04 in 10.0 mi WNW 17.3 mph - 0.00 in Rain Light Rain
6:53 PM 48.0 °F - 33.1 °F 56% 30.07 in 10.0 mi NW 10.4 mph - 0.00 in Rain Light Rain
7:53 PM 45.0 °F 40.6 °F 33.1 °F 63% 30.09 in 10.0 mi NW 8.1 mph - 0.00 in Rain Light Rain
8:53 PM 43.0 °F 38.2 °F 33.1 °F 68% 30.09 in 10.0 mi NW 8.1 mph - 0.00 in Rain Light Rain
9:53 PM 42.1 °F 37.1 °F 33.1 °F 70% 30.10 in 10.0 mi WNW 8.1 mph - 0.00 in   Clear
10:53 PM 41.0 °F 36.4 °F 33.8 °F 76% 30.09 in 10.0 mi West 6.9 mph - N/A   Clear
11:53 PM 39.9 °F 35.1 °F 32.0 °F 73% 30.10 in 10.0 mi West 6.9 mph - N/A   Clear